BAW264 KSAN-EGLL

Flight info

Callsign BAW264
Flight time N/A
Altitude 35000
Route ZZOOO4 TGOLD DCT PXR J102 BOLIC J18 SJN DCT KD54A DCT KP69G DCT KG81K DCT SSM DCT VETRO DCT KLIPS DCT VERCH/M083F350 DCT SAVRY DCT 60N050W 6030N04000W 60N030W 59N020W 58N015W DCT AGORI/N0471F350 DCT OSBOX DCT MIMKU DCT KELLY L10 WAL UY53 NUGRA
Aircraft B772/H-SDE2E3FGHIJ5LORVWXY/LB1D1

Departure

Time 2026-04-30 22:55
Airport San Diego International Airport (KSAN)

Arrival

Time N/A
Airport London Heathrow Airport (EGLL)
Time Latitude Longitude Altitude Speed Heading
2026-04-30 22:24 32.73263 -117.20713 27 ft 0 kts 192°
2026-04-30 22:39 32.73335 -117.20695 26 ft 4 kts 192°
2026-04-30 22:40 32.73351 -117.20690 26 ft 0 kts 192°
2026-04-30 22:43 32.73341 -117.20677 26 ft 2 kts 109°
2026-04-30 22:43 32.73340 -117.20621 27 ft 5 kts 84°
2026-04-30 22:44 32.73390 -117.20562 27 ft 6 kts
2026-04-30 22:45 32.73471 -117.20555 27 ft 2 kts 22°
2026-04-30 22:45 32.73499 -117.20528 27 ft 3 kts 47°
2026-04-30 22:46 32.73512 -117.20512 26 ft 1 kts 47°
2026-04-30 22:47 32.73583 -117.20331 27 ft 9 kts 107°
2026-04-30 22:47 32.73535 -117.20133 27 ft 18 kts 106°
2026-04-30 22:48 32.73455 -117.19798 27 ft 24 kts 106°
2026-04-30 22:49 32.73317 -117.19233 27 ft 24 kts 106°
2026-04-30 22:49 32.73179 -117.18664 30 ft 24 kts 106°
2026-04-30 22:50 32.72998 -117.17918 29 ft 19 kts 106°
2026-04-30 22:51 32.72948 -117.17718 30 ft 8 kts 93°
2026-04-30 22:51 32.72949 -117.17704 30 ft 0 kts 82°
2026-04-30 22:53 32.72975 -117.17599 29 ft 10 kts 69°
2026-04-30 22:53 32.73019 -117.17586 29 ft 7 kts 312°
2026-04-30 22:54 32.73257 -117.18558 31 ft 140 kts 285°
2026-04-30 22:55 32.74267 -117.22675 2295 ft 184 kts 283°
2026-04-30 22:55 32.75026 -117.25939 2983 ft 230 kts 287°
2026-04-30 22:56 32.75924 -117.29713 4184 ft 243 kts 287°
2026-04-30 22:56 32.75657 -117.35590 6019 ft 264 kts 222°
2026-04-30 22:57 32.72210 -117.36748 7320 ft 266 kts 166°
2026-04-30 22:57 32.69366 -117.34230 8479 ft 261 kts 124°
2026-04-30 22:58 32.67147 -117.30761 9784 ft 265 kts 124°
2026-04-30 22:59 32.63708 -117.25439 11484 ft 273 kts 121°
2026-04-30 22:59 32.62618 -117.18721 12064 ft 307 kts 93°